CDT,Max TemperatureF,Mean TemperatureF,Min TemperatureF,Max Dew PointF,MeanDew PointF,Min DewpointF,Max Humidity, Mean Humidity, Min Humidity, Max Sea Level PressureIn, Mean Sea Level PressureIn, Min Sea Level PressureIn, Max VisibilityMiles, Mean VisibilityMiles, Min VisibilityMiles, Max Wind SpeedMPH, Mean Wind SpeedMPH, Max Gust SpeedMPH,PrecipitationIn, CloudCover, Events, WindDirDegrees
2013-3-1,50,38,27,31,27,23,89,68,43,30.39,30.29,30.23,10,10,8,16,5,23,0.00,2,,12
2013-3-2,57,42,26,34,28,21,89,67,39,30.45,30.34,30.21,10,10,9,8,5,17,0.00,1,,300
2013-3-3,77,52,28,37,31,26,89,51,17,30.19,29.88,29.61,10,10,10,22,6,31,0.00,0,,159
2013-3-4,75,60,46,42,36,27,71,44,28,30.00,29.65,29.53,10,10,10,47,11,60,0.00,0,,345
2013-3-5,53,40,28,30,19,13,78,40,23,30.42,30.34,30.10,10,10,10,29,17,48,0.00,1,,346
2013-3-6,53,37,21,25,23,19,89,53,31,30.48,30.34,30.17,10,10,10,14,5,,0.00,0,,112
2013-3-7,72,56,39,35,26,22,51,35,19,30.16,30.08,30.00,10,10,10,23,12,30,0.00,0,,155
2013-3-8,64,59,54,58,51,36,100,77,49,30.08,29.99,29.89,10,8,2,20,13,33,0.00,6,,148
2013-3-9,70,62,53,61,53,32,97,76,30,29.87,29.72,29.60,10,8,1,24,14,32,0.25,7,Rain-Thunderstorm,171
2013-3-10,57,44,30,38,29,26,85,60,37,30.12,29.95,29.73,10,10,10,23,12,34,0.00,5,,319
2013-3-11,60,45,30,34,24,15,75,48,29,30.13,30.06,29.97,10,10,10,10,6,17,0.00,0,,283
2013-3-12,61,49,37,37,31,25,79,53,33,30.36,30.19,30.01,10,10,10,17,8,,0.00,0,,49
2013-3-13,66,48,30,37,33,28,92,59,31,30.47,30.37,30.29,10,10,10,12,4,17,0.00,0,,133
2013-3-14,77,56,35,45,40,31,86,55,29,30.30,30.21,30.11,10,10,10,12,5,,0.00,0,,153
2013-3-15,84,63,42,47,43,38,86,51,22,30.10,29.93,29.75,10,10,7,16,8,23,0.00,0,,184
2013-3-16,82,68,53,50,45,39,74,51,31,29.75,29.71,29.64,10,10,10,26,10,37,0.00,0,,121
2013-3-17,57,50,44,41,37,33,79,65,55,29.85,29.77,29.66,10,10,8,25,15,39,0.00,3,,13
2013-3-18,64,52,41,40,36,27,89,62,28,30.01,29.88,29.64,10,8,4,29,13,37,0.00,2,,20
2013-3-19,61,48,35,38,32,27,82,49,30,30.19,30.08,29.99,10,10,10,18,7,16,0.00,1,,70
2013-3-20,63,50,37,36,30,26,70,47,25,30.36,30.21,30.01,10,10,10,13,8,,0.00,0,,53
2013-3-21,75,62,48,53,38,28,69,48,35,29.96,29.66,29.43,10,10,10,23,14,29,0.00,2,,134
2013-3-22,48,44,39,38,37,35,93,75,66,29.91,29.81,29.59,10,9,4,29,17,38,0.00,8,Rain,25
2013-3-23,50,44,39,43,40,32,93,81,71,29.94,29.82,29.70,10,6,2,16,8,24,0.00,8,,47
2013-3-24,48,40,32,31,21,15,73,53,27,30.24,30.13,29.95,10,10,10,24,17,34,0.00,3,,338
2013-3-25,50,36,23,19,15,11,74,44,24,30.43,30.36,30.26,10,10,10,25,10,29,0.00,1,,335
2013-3-26,57,38,19,25,19,15,81,46,23,30.50,30.38,30.23,10,10,10,14,5,,0.00,0,,134
2013-3-27,73,58,42,40,32,24,53,41,26,30.21,30.10,29.98,10,10,10,22,14,36,0.00,0,,160
2013-3-28,75,60,46,53,47,40,83,63,43,30.12,30.06,29.98,10,10,10,21,11,28,0.00,0,,149
2013-3-29,75,65,55,58,56,52,90,73,54,30.08,30.02,29.96,10,10,10,21,11,29,0.00,1,Thunderstorm,153
2013-3-30,80,63,46,66,55,45,97,78,45,30.00,29.93,29.85,10,8,2,15,5,23,0.14,1,Rain-Thunderstorm,139
2013-3-31,71,60,46,59,48,42,93,63,35,30.04,29.96,29.84,10,10,9,28,11,38,0.00,1,,29